{"data":{"norad_id":54766,"intl_designator":"2022-175J","name":"STARLINK-5471","alt_names":[],"object_type":"PAYLOAD","status":"ACTIVE","operator":null,"country":"US","launch_date":"2022-12-17","launch_site_code":"AFETR","launch_vehicle":null,"mission":null,"orbit_class":"UNKNOWN","rcs_meters":null,"size_class":null,"mass_kg":null,"dimensions":null,"purposes":["comms"],"wikipedia_slug":null,"has_3d_model":false,"image_url":null,"decayed_at":null,"tle_current":{"epoch":"2026-05-25T00:40:45.374016Z","epoch_age_seconds":72375,"freshness":"FRESH","line1":"1 54766U 22175J   26145.02830294 -.00001931  00000+0 -10327-3 0  9992","line2":"2 54766  53.2148  61.4162 0001159  94.5741 265.5384 15.08843073191440","mean_motion":15.08843073,"eccentricity":0.0001159,"inclination_deg":53.2148,"raan_deg":61.4162,"arg_perigee_deg":94.5741,"mean_anomaly_deg":265.5384,"bstar":-0.00010327,"rev_number":19144,"period_min":95.437360303937,"perigee_km":538.93221479998,"apogee_km":540.53577729686,"semimajor_km":6917.8709960484,"source":"CELESTRAK","updated_at":"2026-05-25T13:38:17.689410Z"}}}